Regional Weather Roundup
Issued by NWS

Home | Current Version | Previous Version | Text Only | Print | Product List | Glossary Off
Versions: 1 2 3 4 5 6 7 8 9 10 11 12 13 14 15 16 17 18 19 20 21 22 23 24 25 26 27 28 29 30 31 32 33 34 35 36 37 38 39 40 41 42 43 44 45 46 47 48 49 50

000
ASUS43 KDTX 062010
RWRMI
MICHIGAN HOURLY REGIONAL WEATHER ROUNDUP
NATIONAL WEATHER SERVICE DETROIT/PONTIAC MI
300 PM EST FRI MAR 06 2015

NOTE: "FAIR" INDICATES FEW OR NO CLOUDS BELOW 12,000 FEET WITH NO
SIGNIFICANT WEATHER AND/OR OBSTRUCTION TO VISIBILITY.

MIZ047>049-052>055-059>063-066>070-074>076-081>083-062100-
SOUTHEAST LOWER MICHIGAN

CITY           SKY/WX    TMP DP  RH WIND       PRES   REMARKS
ADRIAN         SUNNY     19   7  59 SW16G22   30.34F
ALMA           SUNNY     21   4  48 S14G22    30.23F
ANN ARBOR      SUNNY     19   3  49 SW14      30.31F
BAD AXE        SUNNY     24   3  40 SW16G23   30.21F
DETROIT CITY   SUNNY     23   3  42 SW16      30.33F
DETROIT        PTSUNNY   22   6  50 S21       30.34F
FLINT          SUNNY     25   0  33 SW18G25   30.26F
GROSSE ILE     SUNNY     23   5  46 SW14      30.34F
HILLSDALE      SUNNY     21   3  46 SW13      30.29F
HOWELL         SUNNY     23   0  36 S10G17    30.25F

CITY           SKY/WX    TMP DP  RH WIND       PRES   REMARKS
JACKSON        SUNNY     21   2  43 SW17      30.28F
LAMBERTVILLE   SUNNY     25   9  50 S13G21    30.35F
LANSING        SUNNY     21   2  43 SW17      30.26F
LAPEER         NOT AVBL
MASON          SUNNY     23   2  41 S8G17     30.27F
MONROE         SUNNY     21   7  53 SW12      30.34F
MT. CLEMENS    PTSUNNY   23   3  41 SW16      30.29F
PONTIAC        PTSUNNY   21   2  43 SW14G23   30.25F
PORT HOPE        N/A     25   0  33 SW12G21   30.19F
PORT HURON     MOSUNNY   19  10  68 S17G23    30.30F
TRI CITIES     SUNNY     23   4  44 SW17      30.23F
YPSILANTI      SUNNY     23   7  50 SW16      30.33F
$$
MIZ043>046-050>051-056>058-064>065-071>073-077>080-062100-
SOUTHWEST LOWER MICHIGAN

CITY           SKY/WX    TMP DP  RH WIND       PRES   REMARKS
BATTLE CREEK   SUNNY     21   4  47 SW23      30.27F
BENTON HARBOR  CLOUDY    21   7  54 S15       30.27F
BIG RAPIDS     MOSUNNY   23   9  54 SW14G24   30.16F
COLDWATER      SUNNY     21   1  42 SW14      30.30F
HOLLAND        SUNNY     24   5  44 S16       30.25F
GRAND RAPIDS   PTSUNNY   22   2  42 SW14G26   30.24F
KALAMAZOO      SUNNY     21   6  52 S15       30.28F
MARSHALL       SUNNY     20   3  46 S13       30.28F
MUSKEGON       PTSUNNY   20   9  62 S18G30    30.22F
$$
MIZ016>042-062100-
NORTHERN LOWER MICHIGAN

CITY           SKY/WX    TMP DP  RH WIND       PRES   REMARKS
ALPENA         PTSUNNY   29   3  33 SW14G24   30.08F
BEAVER ISLAND  MOSUNNY   25  18  76 SW20G33   30.01F
BELLAIRE       SUNNY     30   8  40 S13G21    30.07F
CADILLAC       MOSUNNY   24  11  58 S14G25    30.07F
CHARLEVOIX     SUNNY     27  11  50 S18G29    30.06F
FRANKFORT      CLEAR     26  17  70 S17G28    30.09F
GAYLORD        SUNNY     25   5  42 SW17G31   30.02F
GRAYLING       SUNNY     28   8  43 SW10G21   30.07F
HARBOR SPRINGS SUNNY     27  11  50 SW15G25   30.03F
HOUGHTON LAKE  CLOUDY    23   7  50 SW14      30.10F
MANISTEE       SUNNY     27  12  54 S15G24    30.12F
OSCODA         MOSUNNY   23   9  56 S20G25    30.15F
PELLSTON       PTSUNNY   27   9  46 SW16G28   30.03F
TRAVERSE CITY  MOSUNNY   30  10  43 SW12G23   30.06F
$$
MIZ007>008-015-062100-
EASTERN UPPER MICHIGAN

CITY           SKY/WX    TMP DP  RH WIND       PRES   REMARKS
KINROSS        SUNNY     27  16  63 SW16G26   29.98F
MACKINAC ISLAN MOSUNNY   28  11  48 SW13G24   30.01F
NEWBERRY       CLOUDY    22  17  81 S22G37    29.94F HAZE
S. S. MARIE    CLOUDY    24  13  62 SW16G26   29.97F
$$
MIZ004>006-011>014-085-062100-
CENTRAL UPPER MICHIGAN

CITY           SKY/WX    TMP DP  RH WIND       PRES   REMARKS
MANISTIQUE     CLOUDY    25  17  71 SW18G26   29.97F
ESCANABA       CLOUDY    21  14  73 S17G28    29.98F
MENOMINEE      CLOUDY    25   9  50 SW12G24   30.01F
SAWYER-GWINN   MOSUNNY   28   9  43 SW14      29.87F
$$
MIZ001>003-009>011-084-062100-
WESTERN UPPER MICHIGAN

CITY           SKY/WX    TMP DP  RH WIND       PRES   REMARKS
IRON MOUNTAIN  SUNNY     30   9  41 SW13      29.90F
HOUGHTON       SUNNY     24  12  60 W24G32    29.86F
COPPER HARBOR    N/A     27  11  51 NW12G18   29.87F
IRONWOOD       SUNNY     28  10  47 W16       29.90S
$$

ABBREVIATIONS USED IN REMARKS
   TC - TEMPERATURE IN CELSIUS
  WCI - WIND CHILL INDEX
   HX - HEAT INDEX
  VSB - VISIBILITY




USA.gov is the U.S. government's official web portal to all federal, state and local government web resources and services.